Time,TemperatureF,DewpointF,PressureIn,WindDirection,WindDirectionDegrees,WindSpeedMPH,WindSpeedGustMPH,Humidity,HourlyPrecipIn,Conditions,Clouds,dailyrainin,SoftwareType,DateUTC
2013-02-27 00:02:00,37.0,33.0,-100.00,WSW,240,9.0,14.0,83,-99.99,,,-99.99,,2013-02-27 06:02:00,
2013-02-27 00:11:00,37.0,32.0,-100.00,WSW,250,9.0,14.0,83,-99.99,,,-99.99,,2013-02-27 06:11:00,
2013-02-27 00:21:00,37.0,32.0,-100.00,WSW,250,9.0,14.0,83,-99.99,,,-99.99,,2013-02-27 06:21:00,
2013-02-27 00:42:00,37.0,33.0,-100.00,SW,235,6.0,9.0,85,-99.99,,,-99.99,,2013-02-27 06:42:00,
2013-02-27 00:52:00,37.0,33.0,-100.00,WSW,250,6.0,12.0,85,-99.99,,,-99.99,,2013-02-27 06:52:00,
2013-02-27 01:01:00,37.0,33.0,-100.00,WSW,250,6.0,12.0,85,-99.99,,,-99.99,,2013-02-27 07:01:00,
2013-02-27 01:12:00,37.0,32.0,-100.00,WSW,240,6.0,10.0,83,-99.99,,,-99.99,,2013-02-27 07:12:00,
2013-02-27 01:21:00,37.0,32.0,-100.00,SW,230,9.0,11.0,82,-99.99,,,-99.99,,2013-02-27 07:21:00,
2013-02-27 01:32:00,37.0,32.0,-100.00,SW,230,9.0,11.0,82,-99.99,,,-99.99,,2013-02-27 07:32:00,
2013-02-27 01:42:00,37.0,32.0,-100.00,WSW,250,9.0,14.0,81,-99.99,,,-99.99,,2013-02-27 07:42:00,
2013-02-27 01:52:00,37.0,31.0,-100.00,WSW,245,10.0,18.0,79,-99.99,,,-99.99,,2013-02-27 07:52:00,
2013-02-27 02:01:00,37.0,31.0,-100.00,WSW,245,10.0,18.0,79,-99.99,,,-99.99,,2013-02-27 08:01:00,
2013-02-27 02:11:00,37.0,31.0,-100.00,SW,235,3.0,4.0,78,-99.99,,,-99.99,,2013-02-27 08:11:00,
2013-02-27 02:21:00,37.0,31.0,-100.00,West,270,6.0,9.0,78,-99.99,,,-99.99,,2013-02-27 08:21:00,
2013-02-27 02:32:00,37.0,31.0,-100.00,West,270,6.0,9.0,78,-99.99,,,-99.99,,2013-02-27 08:32:00,
2013-02-27 02:42:00,37.0,30.0,-100.00,WSW,240,4.0,6.0,77,-99.99,,,-99.99,,2013-02-27 08:42:00,
2013-02-27 02:53:00,37.0,30.0,-100.00,West,260,8.0,10.0,77,-99.99,,,-99.99,,2013-02-27 08:53:00,
2013-02-27 03:02:00,37.0,30.0,-100.00,West,260,8.0,10.0,77,-99.99,,,-99.99,,2013-02-27 09:02:00,
2013-02-27 03:12:00,37.0,30.0,-100.00,SW,220,6.0,10.0,76,-99.99,,,-99.99,,2013-02-27 09:12:00,
2013-02-27 03:22:00,36.0,29.0,-100.00,WSW,250,4.0,8.0,75,-99.99,,,-99.99,,2013-02-27 09:22:00,
2013-02-27 03:32:00,36.0,29.0,-100.00,WSW,250,4.0,8.0,75,-99.99,,,-99.99,,2013-02-27 09:32:00,
2013-02-27 03:41:00,36.0,29.0,-100.00,WSW,245,6.0,10.0,74,-99.99,,,-99.99,,2013-02-27 09:41:00,
2013-02-27 03:52:00,36.0,29.0,-100.00,SW,235,3.0,6.0,74,-99.99,,,-99.99,,2013-02-27 09:52:00,
2013-02-27 04:01:00,36.0,29.0,-100.00,SW,235,3.0,6.0,74,-99.99,,,-99.99,,2013-02-27 10:01:00,
2013-02-27 04:12:00,36.0,29.0,-100.00,SW,235,4.0,6.0,74,-99.99,,,-99.99,,2013-02-27 10:12:00,
2013-02-27 04:22:00,36.0,29.0,-100.00,WSW,255,3.0,8.0,75,-99.99,,,-99.99,,2013-02-27 10:22:00,
2013-02-27 04:32:00,36.0,29.0,-100.00,WSW,255,3.0,8.0,75,-99.99,,,-99.99,,2013-02-27 10:32:00,
2013-02-27 04:42:00,36.0,29.0,-100.00,West,270,9.0,14.0,75,-99.99,,,-99.99,,2013-02-27 10:42:00,
2013-02-27 04:53:00,36.0,29.0,-100.00,WSW,245,6.0,9.0,73,-99.99,,,-99.99,,2013-02-27 10:53:00,
2013-02-27 05:02:00,36.0,29.0,-100.00,WSW,245,6.0,9.0,73,-99.99,,,-99.99,,2013-02-27 11:02:00,
2013-02-27 05:12:00,36.0,28.0,-100.00,WSW,240,8.0,11.0,73,-99.99,,,-99.99,,2013-02-27 11:12:00,
2013-02-27 05:22:00,36.0,28.0,-100.00,West,260,4.0,6.0,72,-99.99,,,-99.99,,2013-02-27 11:22:00,
2013-02-27 05:32:00,36.0,28.0,-100.00,West,260,4.0,6.0,72,-99.99,,,-99.99,,2013-02-27 11:32:00,
2013-02-27 05:42:00,36.0,28.0,-100.00,West,265,4.0,6.0,73,-99.99,,,-99.99,,2013-02-27 11:42:00,
2013-02-27 05:52:00,36.0,28.0,-100.00,West,275,4.0,6.0,73,-99.99,,,-99.99,,2013-02-27 11:52:00,
2013-02-27 06:02:00,36.0,28.0,-100.00,West,275,4.0,6.0,73,-99.99,,,-99.99,,2013-02-27 12:02:00,
2013-02-27 06:13:00,36.0,28.0,-100.00,WNW,290,3.0,4.0,72,-99.99,,,-99.99,,2013-02-27 12:13:00,
2013-02-27 06:22:00,36.0,28.0,-100.00,SW,225,6.0,10.0,72,-99.99,,,-99.99,,2013-02-27 12:22:00,
2013-02-27 06:33:00,36.0,28.0,-100.00,SW,225,6.0,10.0,72,-99.99,,,-99.99,,2013-02-27 12:33:00,
2013-02-27 06:42:00,36.0,28.0,-100.00,WSW,240,4.0,8.0,72,-99.99,,,-99.99,,2013-02-27 12:42:00,
2013-02-27 06:53:00,36.0,28.0,-100.00,SW,220,6.0,8.0,71,-99.99,,,-99.99,,2013-02-27 12:53:00,
2013-02-27 07:02:00,36.0,28.0,-100.00,SW,220,6.0,8.0,71,-99.99,,,-99.99,,2013-02-27 13:02:00,
2013-02-27 07:11:00,36.0,27.0,-100.00,SW,215,4.0,6.0,71,-99.99,,,-99.99,,2013-02-27 13:11:00,
2013-02-27 07:22:00,36.0,27.0,-100.00,WSW,240,6.0,10.0,71,-99.99,,,-99.99,,2013-02-27 13:22:00,
2013-02-27 07:32:00,36.0,27.0,-100.00,WSW,240,6.0,10.0,71,-99.99,,,-99.99,,2013-02-27 13:32:00,
2013-02-27 07:42:00,36.0,27.0,-100.00,SW,220,4.0,6.0,69,-99.99,,,-99.99,,2013-02-27 13:42:00,
2013-02-27 07:52:00,36.0,26.0,-100.00,SSW,210,6.0,12.0,67,-99.99,,,-99.99,,2013-02-27 13:52:00,
2013-02-27 08:02:00,36.0,26.0,-100.00,SSW,210,6.0,12.0,67,-99.99,,,-99.99,,2013-02-27 14:02:00,
2013-02-27 08:12:00,36.0,26.0,-100.00,SW,230,6.0,9.0,67,-99.99,,,-99.99,,2013-02-27 14:12:00,
2013-02-27 08:22:00,36.0,26.0,-100.00,WSW,250,4.0,9.0,66,-99.99,,,-99.99,,2013-02-27 14:22:00,
2013-02-27 08:32:00,36.0,26.0,-100.00,WSW,250,4.0,9.0,66,-99.99,,,-99.99,,2013-02-27 14:32:00,
2013-02-27 08:42:00,37.0,26.0,-100.00,SW,230,9.0,14.0,64,-99.99,,,-99.99,,2013-02-27 14:42:00,
2013-02-27 08:52:00,37.0,25.0,-100.00,SW,235,4.0,6.0,61,-99.99,,,-99.99,,2013-02-27 14:52:00,
2013-02-27 09:02:00,37.0,25.0,-100.00,SW,235,4.0,6.0,61,-99.99,,,-99.99,,2013-02-27 15:02:00,
2013-02-27 09:12:00,37.0,24.0,-100.00,WSW,250,17.0,21.0,59,-99.99,,,-99.99,,2013-02-27 15:12:00,
2013-02-27 09:22:00,38.0,24.0,-100.00,SSW,210,6.0,10.0,58,-99.99,,,-99.99,,2013-02-27 15:22:00,
2013-02-27 09:32:00,38.0,24.0,-100.00,SSW,210,6.0,10.0,58,-99.99,,,-99.99,,2013-02-27 15:32:00,
2013-02-27 09:42:00,38.0,25.0,-100.00,SW,230,6.0,10.0,59,-99.99,,,-99.99,,2013-02-27 15:42:00,
2013-02-27 09:52:00,38.0,24.0,-100.00,SW,235,8.0,12.0,58,-99.99,,,-99.99,,2013-02-27 15:52:00,
2013-02-27 10:02:00,38.0,24.0,-100.00,SW,235,8.0,12.0,58,-99.99,,,-99.99,,2013-02-27 16:02:00,
2013-02-27 10:12:00,38.0,24.0,-100.00,SW,230,10.0,14.0,57,-99.99,,,-99.99,,2013-02-27 16:12:00,
2013-02-27 10:22:00,38.0,24.0,-100.00,WSW,255,10.0,14.0,56,-99.99,,,-99.99,,2013-02-27 16:22:00,
2013-02-27 10:32:00,38.0,24.0,-100.00,WSW,255,10.0,14.0,56,-99.99,,,-99.99,,2013-02-27 16:32:00,
2013-02-27 10:42:00,38.0,24.0,-100.00,West,260,6.0,9.0,57,-99.99,,,-99.99,,2013-02-27 16:42:00,
2013-02-27 10:52:00,38.0,24.0,-100.00,WSW,240,6.0,10.0,56,-99.99,,,-99.99,,2013-02-27 16:52:00,
2013-02-27 11:02:00,38.0,24.0,-100.00,WSW,240,6.0,10.0,56,-99.99,,,-99.99,,2013-02-27 17:02:00,
2013-02-27 11:11:00,38.0,24.0,-100.00,WSW,240,11.0,16.0,56,-99.99,,,-99.99,,2013-02-27 17:11:00,
2013-02-27 11:21:00,39.0,24.0,-100.00,WSW,240,12.0,21.0,56,-99.99,,,-99.99,,2013-02-27 17:21:00,
2013-02-27 11:32:00,39.0,24.0,-100.00,WSW,240,12.0,21.0,56,-99.99,,,-99.99,,2013-02-27 17:32:00,
2013-02-27 11:42:00,39.0,24.0,-100.00,SW,235,9.0,14.0,54,-99.99,,,-99.99,,2013-02-27 17:42:00,
2013-02-27 11:52:00,39.0,25.0,-100.00,WSW,250,6.0,9.0,55,-99.99,,,-99.99,,2013-02-27 17:52:00,
2013-02-27 12:02:00,39.0,25.0,-100.00,WSW,250,6.0,9.0,55,-99.99,,,-99.99,,2013-02-27 18:02:00,
2013-02-27 12:11:00,39.0,24.0,-100.00,SW,225,11.0,14.0,55,-99.99,,,-99.99,,2013-02-27 18:11:00,
2013-02-27 12:22:00,39.0,24.0,-100.00,SW,235,10.0,14.0,55,-99.99,,,-99.99,,2013-02-27 18:22:00,
2013-02-27 12:32:00,39.0,24.0,-100.00,SW,235,10.0,14.0,55,-99.99,,,-99.99,,2013-02-27 18:32:00,
2013-02-27 12:42:00,39.0,24.0,-100.00,SW,235,12.0,18.0,55,-99.99,,,-99.99,,2013-02-27 18:42:00,
2013-02-27 12:52:00,39.0,24.0,-100.00,SW,235,8.0,18.0,55,-99.99,,,-99.99,,2013-02-27 18:52:00,
2013-02-27 13:01:00,39.0,24.0,-100.00,SW,235,8.0,18.0,55,-99.99,,,-99.99,,2013-02-27 19:01:00,
2013-02-27 13:12:00,39.0,24.0,-100.00,SW,220,8.0,10.0,54,-99.99,,,-99.99,,2013-02-27 19:12:00,
2013-02-27 13:21:00,38.0,25.0,-100.00,WSW,240,6.0,9.0,57,-99.99,,,-99.99,,2013-02-27 19:21:00,
2013-02-27 13:32:00,38.0,25.0,-100.00,WSW,240,6.0,9.0,57,-99.99,,,-99.99,,2013-02-27 19:32:00,
2013-02-27 13:42:00,38.0,26.0,-100.00,SW,235,14.0,18.0,60,-99.99,,,-99.99,,2013-02-27 19:42:00,
2013-02-27 13:52:00,38.0,27.0,-100.00,SSW,210,6.0,10.0,64,-99.99,,,-99.99,,2013-02-27 19:52:00,
2013-02-27 14:01:00,38.0,27.0,-100.00,SSW,210,6.0,10.0,64,-99.99,,,-99.99,,2013-02-27 20:01:00,
2013-02-27 14:12:00,38.0,28.0,-100.00,SW,220,12.0,16.0,67,-99.99,,,-99.99,,2013-02-27 20:12:00,
2013-02-27 14:22:00,38.0,29.0,-100.00,SW,235,8.0,10.0,71,-99.99,,,-99.99,,2013-02-27 20:22:00,
2013-02-27 14:32:00,38.0,29.0,-100.00,SW,235,8.0,10.0,71,-99.99,,,-99.99,,2013-02-27 20:32:00,
2013-02-27 14:42:00,38.0,30.0,-100.00,SSW,205,8.0,11.0,75,-99.99,,,-99.99,,2013-02-27 20:42:00,
2013-02-27 14:52:00,38.0,31.0,-100.00,SW,225,10.0,14.0,77,-99.99,,,-99.99,,2013-02-27 20:52:00,
2013-02-27 15:02:00,38.0,31.0,-100.00,SW,225,10.0,14.0,77,-99.99,,,-99.99,,2013-02-27 21:02:00,
2013-02-27 15:11:00,38.0,31.0,-100.00,SW,230,8.0,11.0,77,-99.99,,,-99.99,,2013-02-27 21:11:00,
2013-02-27 15:22:00,38.0,31.0,-100.00,SW,230,6.0,10.0,77,-99.99,,,-99.99,,2013-02-27 21:22:00,
2013-02-27 15:32:00,38.0,31.0,-100.00,SW,230,6.0,10.0,77,-99.99,,,-99.99,,2013-02-27 21:32:00,
2013-02-27 15:42:00,37.0,31.0,-100.00,SW,220,8.0,11.0,79,-99.99,,,-99.99,,2013-02-27 21:42:00,
2013-02-27 15:52:00,37.0,32.0,-100.00,SW,230,9.0,12.0,82,-99.99,,,-99.99,,2013-02-27 21:52:00,
2013-02-27 16:01:00,37.0,32.0,-100.00,SW,230,9.0,12.0,82,-99.99,,,-99.99,,2013-02-27 22:01:00,
2013-02-27 16:11:00,37.0,33.0,-100.00,West,265,6.0,8.0,83,-99.99,,,-99.99,,2013-02-27 22:11:00,
2013-02-27 16:21:00,37.0,32.0,-100.00,WSW,245,14.0,18.0,81,-99.99,,,-99.99,,2013-02-27 22:21:00,
2013-02-27 16:32:00,37.0,32.0,-100.00,WSW,245,14.0,18.0,81,-99.99,,,-99.99,,2013-02-27 22:32:00,
2013-02-27 16:42:00,36.0,32.0,-100.00,West,265,4.0,6.0,83,-99.99,,,-99.99,,2013-02-27 22:42:00,
2013-02-27 16:52:00,36.0,31.0,-100.00,West,270,10.0,14.0,83,-99.99,,,-99.99,,2013-02-27 22:52:00,
2013-02-27 17:01:00,36.0,31.0,-100.00,West,270,10.0,14.0,83,-99.99,,,-99.99,,2013-02-27 23:01:00,
2013-02-27 17:11:00,36.0,31.0,-100.00,West,270,10.0,14.0,83,-99.99,,,-99.99,,2013-02-27 23:11:00,
2013-02-27 17:21:00,36.0,31.0,-100.00,WSW,250,6.0,9.0,79,-99.99,,,-99.99,,2013-02-27 23:21:00,
2013-02-27 17:32:00,36.0,31.0,-100.00,West,265,4.0,6.0,82,-99.99,,,-99.99,,2013-02-27 23:32:00,
2013-02-27 17:42:00,36.0,31.0,-100.00,West,265,4.0,6.0,82,-99.99,,,-99.99,,2013-02-27 23:42:00,
2013-02-27 17:53:00,36.0,32.0,-100.00,WSW,255,4.0,6.0,85,-99.99,,,-99.99,,2013-02-27 23:53:00,
2013-02-27 18:02:00,36.0,32.0,-100.00,WSW,255,4.0,6.0,85,-99.99,,,-99.99,,2013-02-28 00:02:00,
2013-02-27 18:12:00,36.0,32.0,-100.00,West,265,3.0,6.0,87,-99.99,,,-99.99,,2013-02-28 00:12:00,
2013-02-27 18:21:00,35.0,32.0,-100.00,NW,310,2.0,3.0,87,-99.99,,,-99.99,,2013-02-28 00:21:00,
2013-02-27 18:32:00,35.0,32.0,-100.00,West,260,4.0,9.0,88,-99.99,,,-99.99,,2013-02-28 00:32:00,
2013-02-27 18:42:00,35.0,32.0,-100.00,West,260,4.0,9.0,88,-99.99,,,-99.99,,2013-02-28 00:42:00,
2013-02-27 18:52:00,35.0,31.0,-100.00,West,280,4.0,9.0,86,-99.99,,,-99.99,,2013-02-28 00:52:00,
2013-02-27 19:01:00,35.0,31.0,-100.00,West,280,4.0,9.0,86,-99.99,,,-99.99,,2013-02-28 01:01:00,
2013-02-27 19:11:00,35.0,30.0,-100.00,West,265,9.0,12.0,82,-99.99,,,-99.99,,2013-02-28 01:11:00,
2013-02-27 19:22:00,35.0,30.0,-100.00,West,280,6.0,9.0,80,-99.99,,,-99.99,,2013-02-28 01:22:00,
2013-02-27 19:32:00,35.0,30.0,-100.00,West,280,6.0,9.0,80,-99.99,,,-99.99,,2013-02-28 01:32:00,
2013-02-27 19:42:00,35.0,30.0,-100.00,West,265,6.0,10.0,80,-99.99,,,-99.99,,2013-02-28 01:42:00,
2013-02-27 19:52:00,35.0,30.0,-100.00,WSW,245,3.0,6.0,82,-99.99,,,-99.99,,2013-02-28 01:52:00,
2013-02-27 20:01:00,35.0,30.0,-100.00,WSW,245,3.0,6.0,82,-99.99,,,-99.99,,2013-02-28 02:01:00,
2013-02-27 20:11:00,35.0,30.0,-100.00,SW,235,4.0,6.0,82,-99.99,,,-99.99,,2013-02-28 02:11:00,
2013-02-27 20:22:00,34.0,29.0,-100.00,West,265,6.0,14.0,80,-99.99,,,-99.99,,2013-02-28 02:22:00,
2013-02-27 20:32:00,34.0,29.0,-100.00,West,265,6.0,14.0,80,-99.99,,,-99.99,,2013-02-28 02:32:00,
2013-02-27 20:41:00,34.0,29.0,-100.00,West,265,6.0,14.0,80,-99.99,,,-99.99,,2013-02-28 02:41:00,
2013-02-27 21:01:00,34.0,28.0,-100.00,West,275,8.0,14.0,77,-99.99,,,-99.99,,2013-02-28 03:01:00,
2013-02-27 21:11:00,34.0,28.0,-100.00,West,260,8.0,11.0,78,-99.99,,,-99.99,,2013-02-28 03:11:00,
2013-02-27 21:21:00,34.0,28.0,-100.00,SW,220,4.0,9.0,78,-99.99,,,-99.99,,2013-02-28 03:21:00,
2013-02-27 21:32:00,34.0,28.0,-100.00,SW,220,4.0,9.0,78,-99.99,,,-99.99,,2013-02-28 03:32:00,
2013-02-27 21:42:00,34.0,28.0,-100.00,SSW,210,4.0,6.0,79,-99.99,,,-99.99,,2013-02-28 03:42:00,
2013-02-27 21:52:00,34.0,28.0,-100.00,WSW,255,4.0,6.0,80,-99.99,,,-99.99,,2013-02-28 03:52:00,
2013-02-27 22:02:00,34.0,28.0,-100.00,WSW,255,4.0,6.0,80,-99.99,,,-99.99,,2013-02-28 04:02:00,
2013-02-27 22:11:00,34.0,28.0,-100.00,SW,235,4.0,9.0,79,-99.99,,,-99.99,,2013-02-28 04:11:00,
2013-02-27 22:21:00,34.0,28.0,-100.00,WSW,250,6.0,10.0,80,-99.99,,,-99.99,,2013-02-28 04:21:00,
2013-02-27 22:32:00,34.0,28.0,-100.00,WSW,250,6.0,10.0,80,-99.99,,,-99.99,,2013-02-28 04:32:00,
2013-02-27 22:42:00,33.0,28.0,-100.00,West,265,1.0,3.0,82,-99.99,,,-99.99,,2013-02-28 04:42:00,
2013-02-27 22:52:00,33.0,28.0,-100.00,West,265,4.0,9.0,82,-99.99,,,-99.99,,2013-02-28 04:52:00,
2013-02-27 23:01:00,33.0,28.0,-100.00,West,265,4.0,9.0,82,-99.99,,,-99.99,,2013-02-28 05:01:00,
2013-02-27 23:11:00,33.0,27.0,-100.00,WSW,255,4.0,6.0,79,-99.99,,,-99.99,,2013-02-28 05:11:00,
2013-02-27 23:22:00,33.0,27.0,-100.00,WSW,255,6.0,9.0,79,-99.99,,,-99.99,,2013-02-28 05:22:00,
2013-02-27 23:31:00,32.0,28.0,-100.00,West,265,4.0,12.0,83,-99.99,,,-99.99,,2013-02-28 05:31:00,
2013-02-27 23:32:00,33.0,27.0,-100.00,WSW,255,6.0,9.0,79,-99.99,,,-99.99,,2013-02-28 05:32:00,
2013-02-27 23:42:00,33.0,27.0,-100.00,WSW,245,6.0,14.0,80,-99.99,,,-99.99,,2013-02-28 05:42:00,
2013-02-27 23:52:00,33.0,28.0,-100.00,West,275,4.0,6.0,82,-99.99,,,-99.99,,2013-02-28 05:52:00,